This is the latest recevied weather packets stored in our database for station/object KE4LOJ. If no packets are shown the sender has not sent any weather packets the latest 10 day(s).
| Time | Temp. | Humidity | Pressure | Rain* | Wind** | Luminosity | Snow |
|---|---|---|---|---|---|---|---|
| 1778020326 | 26.11° C | 52% | 1016 hPa | 0 mm | - | 83 W/m² | - |
| 1778020022 | 26.11° C | 52% | 1015.9 hPa | 0 mm | - | 139 W/m² | - |
| 1778019718 | 26.11° C | 51% | 1015.8 hPa | 0 mm | - | 175 W/m² | - |
| 1778019415 | 26.67° C | 51% | 1015.9 hPa | 0 mm | - | 204 W/m² | - |
| 1778019112 | 26.67° C | 52% | 1015.9 hPa | 0 mm | - | 228 W/m² | - |
| 1778018809 | 26.67° C | 52% | 1015.9 hPa | 0 mm | - | 225 W/m² | - |
| 1778018507 | 26.11° C | 52% | 1015.9 hPa | 0 mm | - | 262 W/m² | - |
| 1778018204 | 26.11° C | 52% | 1015.8 hPa | 0 mm | - | 267 W/m² | - |
| 1778017902 | 26.11° C | 52% | 1015.9 hPa | 0 mm | - | 277 W/m² | - |
| 1778017600 | 26.11° C | 52% | 1016 hPa | 0 mm | - | 100 W/m² | - |
| 1778017296 | 26.67° C | 52% | 1015.8 hPa | 0 mm | - | 152 W/m² | - |
| 1778016994 | 26.11° C | 52% | 1015.7 hPa | 0 mm | - | 143 W/m² | - |
| 1778016691 | 26.67° C | 53% | 1015.8 hPa | 0 mm | - | 139 W/m² | - |
| 1778016386 | 26.67° C | 52% | 1015.8 hPa | 0 mm | - | 141 W/m² | - |
| 1778016085 | 26.67° C | 53% | 1015.6 hPa | 0 mm | - | 148 W/m² | - |
| 1778015781 | 26.67° C | 52% | 1015.5 hPa | 0 mm | - | 111 W/m² | - |
| 1778015478 | 26.67° C | 52% | 1015.6 hPa | 0 mm | - | 164 W/m² | - |
| 1778015175 | 26.67° C | 52% | 1015.7 hPa | 0 mm | - | 180 W/m² | - |
| 1778014872 | 26.67° C | 52% | 1015.5 hPa | 0 mm | - | 224 W/m² | - |
| 1778014569 | 27.22° C | 52% | 1015.6 hPa | 0 mm | - | 211 W/m² | - |
| 1778014267 | 26.67° C | 52% | 1015.4 hPa | 0 mm | - | 201 W/m² | - |
| 1778013964 | 27.22° C | 51% | 1015.4 hPa | 0 mm | - | 203 W/m² | - |
| 1778013661 | 27.78° C | 50% | 1015.3 hPa | 0 mm | - | 394 W/m² | - |
| 1778013358 | 27.78° C | 51% | 1015.4 hPa | 0 mm | - | 473 W/m² | - |
| 1778013055 | 27.22° C | 51% | 1015.7 hPa | 0 mm | - | 534 W/m² | - |
* Rain latest hour (hover to see other rain measurements)
** Current wind speed in m/s (hover to see current wind gust speed)